Flag for Norfolk Island Weather past 2 weeks in Kingston, Norfolk Island

70 °F

Passing clouds.

Feels Like: 70 °F
Forecast: 70 / 76 °F
Wind: 10 mph from Northeast

Location: Norfolk Island Airport

Current Time: Nov 29, 2015 at 11:56:20 PM

Latest Report: Nov 29, 2015 at 11:00 PM

Visibility: N/A

Pressure: 30.12 "Hg

Humidity: 88%

Dew point: 66 °F

Location of KingstonLocation

Historic Weather in Kingston — Graph


Kingston temperature yesterday

Maximum temperature yesterday: 79 °F (at 2:00 PM)
Minimum temperature yesterday: 70 °F (at 12:00 AM)
Average temperature yesterday: 72 °F

Past Weeks' High & Low Weather Summary

High79 °F (Nov 28, 2:00 PM)100% (Nov 17, 12:00 AM)30.15 "Hg (Nov 17, 12:00 AM)
Low59 °F (Nov 18, 2:30 AM)46% (Nov 18, 11:00 AM)29.83 "Hg (Nov 16, 1:30 PM)
Average68 °F79%30.04 "Hg
* Reported Nov 14 10:00 PM — Nov 29 10:00 PM, Kingston, Weather by CustomWeather, © 2015

Note: Actual official high and low records may vary slightly from our data, if they occured in-between our weather recording intervals... More about our weather records


Kingston weather history for previous 24 hours

Time TempWeatherWind HumidityBarometerVisibility
10:00 PM
Sun, Nov 29
70 °FPassing clouds.12 mph88%30.12 "HgN/A
9:30 PM70 °FPassing clouds.13 mph88%30.12 "HgN/A
9:00 PM70 °FPassing clouds.12 mph88%30.12 "HgN/A
8:30 PM70 °FPassing clouds.10 mph88%30.12 "HgN/A
8:00 PM72 °FPassing clouds.10 mph83%30.09 "HgN/A
7:56 PM72 °FPassing clouds.10 mph83%30.09 "HgN/A
7:00 PM72 °FPassing clouds.10 mph83%30.09 "HgN/A
6:00 PM72 °FPassing clouds.7 mph83%30.09 "HgN/A
5:30 PM72 °FPassing clouds.12 mph83%30.07 "HgN/A
5:00 PM73 °FPassing clouds.10 mph78%30.07 "HgN/A
3:30 PM75 °FScattered clouds.13 mph74%30.07 "HgN/A
3:00 PM73 °FPartly sunny.12 mph78%30.07 "HgN/A
2:00 PM75 °FPartly sunny.13 mph74%30.07 "HgN/A
1:00 PM75 °FPartly sunny.8 mph78%30.07 "HgN/A
12:30 PM73 °FPartly sunny.9 mph78%30.07 "HgN/A
12:00 PM75 °FPartly sunny.12 mph74%30.09 "HgN/A
11:30 AM75 °FPartly sunny.9 mph69%30.09 "HgN/A
10:30 AM73 °FBroken clouds.9 mph78%30.09 "HgN/A
10:00 AM73 °FScattered showers. Broken clouds.9 mph78%30.09 "HgN/A
9:00 AM75 °FSprinkles. Partly sunny.10 mph74%30.09 "HgN/A
8:00 AM73 °FBroken clouds.9 mph83%30.07 "HgN/A
7:30 AM73 °FBroken clouds.12 mph78%30.07 "HgN/A
7:00 AM72 °FScattered clouds.8 mph88%30.07 "HgN/A
6:00 AM70 °FOvercast.3 mph94%30.07 "HgN/A
5:30 AM70 °FOvercast.5 mph94%30.04 "HgN/A
5:00 AM70 °FOvercast.6 mph94%30.04 "HgN/A
4:30 AM70 °FMore clouds than sun.6 mph88%30.04 "HgN/A
4:00 AM70 °FMostly cloudy.3 mph88%30.04 "HgN/A
3:30 AM68 °FMostly cloudy.7 mph94%30.04 "HgN/A
3:00 AM68 °FOvercast.5 mph94%30.04 "HgN/A
2:01 AM68 °FMostly cloudy.8 mph94%30.04 "Hg2 mi
1:30 AM70 °FOvercast.9 mph94%30.04 "HgN/A
1:00 AM70 °FPassing clouds.6 mph94%30.04 "HgN/A
12:30 AM70 °FClear.6 mph94%30.04 "HgN/A
12:00 AM70 °FPartly cloudy.6 mph94%30.04 "HgN/A
11:30 PM
Sat, Nov 28
72 °FPartly cloudy.7 mph94%30.07 "HgN/A
11:00 PM72 °FPassing clouds.7 mph88%30.07 "HgN/A
Weather by CustomWeather, © 2015

See weather overviewHow to use our weather pages